Tracking 27111 objects as of 28-Mar-2023
HD Live streaming from Space Station
objects crossing your sky now

STARLINK-5631

Track STARLINK-5631 now!
10-day predictions
STARLINK-5631 is classified as:


NORAD ID: 55346
Int'l Code: 2023-013R
Perigee: 444.7 km
Apogee: 446.5 km
Inclination: 43.0 °
Period: 93.3 minutes
Semi major axis: 6816 km
RCS: Unknown
Launch date: January 26, 2023
Source: United States (US)
Launch site: AIR FORCE EASTERN TEST RANGE (AFETR)
Your satellite tracking list
Your tracking list is empty




NASA's NSSDC Master Catalog

Two Line Element Set (TLE):
1 55346U 23013R   23086.91667824 -.00934589  00000-0 -22914-1 0  9993
2 55346  43.0010  40.2036 0001299 257.6104  66.8817 15.42587046  1306
Source of the keplerian elements: AFSPC